Location: Shenandoah County Park
(38.9356°N, 78.4524°W)
Time: 18:19:00
(UTC-04:00)

ITAMSAT 1 - Visible Passes

Search period start: 31 March 2023 00:00
Search period end: 10 April 2023 00:00
Orbit: 784 x 795 km, 98.8° (Epoch: 31 March)

Date Brightness Start Highest point End Pass type
(mag) Time Alt. Az. Time Alt. Az. Time Alt. Az.
31 Mar 8.4 20:07:19 10° SE 20:11:55 33° ENE 20:16:34 10° N visible
31 Mar 9.5 21:46:54 10° SSW 21:51:20 28° W 21:55:48 10° NW visible
01 Apr 8.3 21:16:27 10° S 21:21:32 55° W 21:26:40 10° NNW visible
02 Apr 7.6 20:46:41 10° SSE 20:51:52 78° ENE 20:57:07 10° N visible
02 Apr 10.5 22:30:14 10° WSW 22:31:51 11° W 22:33:29 10° WNW visible
03 Apr 8.1 20:17:29 10° SE 20:22:20 41° ENE 20:27:13 10° N visible
03 Apr 9.8 21:57:50 10° SW 22:01:53 23° W 22:05:58 10° NW visible
04 Apr 8.7 21:27:06 10° S 21:32:02 44° W 21:37:02 10° NNW visible
05 Apr 7.7 20:57:07 10° SSE 21:02:20 85° WSW 21:07:36 10° NNW visible
06 Apr 7.9 20:27:44 10° SE 20:32:45 51° ENE 20:37:49 10° N visible
06 Apr 10.1 22:08:55 10° SW 22:12:27 18° W 22:16:00 10° NW visible
07 Apr 9.1 21:37:50 10° SSW 21:42:34 35° W 21:47:20 10° NNW visible
08 Apr 8.0 21:07:38 10° S 21:12:48 68° WSW 21:18:02 10° NNW visible
09 Apr 7.7 20:38:02 10° SSE 20:43:11 64° ENE 20:48:22 10° N visible
09 Apr 10.3 22:20:14 10° SW 22:23:01 14° W 22:25:50 10° WNW visible
